Weather History for Torrington, WY

Change the Weather History Date:

Tuesday, January 1, 2013

  Actual Average Record
Temperature  
Mean Temperature 17 °F 27 °F  
Max Temperature 31 °F 40 °F 52 °F (2004)
Min Temperature 3 °F 14 °F -4 °F (2008)
Degree Days  
Heating Degree Days 48 38  
Month to date heating degree days 48 38  
Since 1 July heating degree days 2530 2794  
Cooling Degree Days 0 0  
Month to date cooling degree days 0 0  
Year to date cooling degree days 0 0  
Moisture  
Dew Point 9 °F    
Average Humidity 70    
Maximum Humidity 91    
Minimum Humidity 49    
Precipitation  
Precipitation 0.00 in 0.01 in 0.08 in (2014)
Month to date precipitation 0.00 0.01  
Year to date precipitation 0.00 0.01  
Sea Level Pressure  
Sea Level Pressure 30.20 in    
Wind  
Wind Speed 8 mph (WNW)    
Max Wind Speed 21 mph    
Max Gust Speed 26 mph    
Visibility 8 miles    
Events Fog    
T = Trace of Precipitation, MM = Missing Value Source: NWS Daily Summary

Daily Weather History Graph

Daily Weather History Graph

Search for Another Location

Airport:

Trip Planner

Search our weather history database for the weather conditions in past years. The results will help you decide how hot, cold, wet, or windy it might be!

Date:

Astronomy

Jan. 01, 2013 Rise Set
Actual Time 7:24 AM MST 4:36 PM MST
Civil Twilight 6:53 AM MST 5:07 PM MST
Nautical Twilight 6:18 AM MST 5:42 PM MST
Astronomical Twilight 5:44 AM MST 6:16 PM MST
Moon 9:14 PM MST (1/1) 9:33 AM MST (1/1)
Length of Visible Light 10h 14m
Length of Day
9h 11m
Waning Gibbous, 83% of the Moon is Illuminated
Jan 1
Waning Gibbous
Jan 4
Last Quarter
Jan 11
New
Jan 18
First Quarter
Jan 26
Full

Hourly Weather History & Observations

Time (MST) Temp. Windchill Dew Point Humidity Pressure Visibility Wind Dir Wind Speed Gust Speed Precip Events Conditions
12:50 AM 6.8 °F -2.0 °F 3.2 °F 85% 30.05 in 8.0 mi NNW 4.6 mph - N/A   Scattered Clouds
12:53 AM 7.0 °F 0.1 °F 3.9 °F 87% 30.23 in 5.0 mi NW 3.5 mph - N/A   Mostly Cloudy
1:20 AM 6.8 °F - 3.2 °F 85% 30.05 in 1.5 mi Calm Calm - N/A   Overcast
1:28 AM 6.8 °F - 3.2 °F 85% 30.06 in 0.5 mi Calm Calm - N/A Fog Light Freezing Fog
1:53 AM 7.0 °F - 3.9 °F 87% 30.25 in 1.0 mi Calm Calm - N/A   Mist
2:00 AM 6.8 °F -2.0 °F 3.2 °F 85% 30.07 in 0.8 mi West 4.6 mph - N/A   Mist
2:03 AM 6.8 °F -0.1 °F 3.2 °F 85% 30.07 in 1.2 mi West 3.5 mph - N/A   Scattered Clouds
2:06 AM 6.8 °F -0.1 °F 3.2 °F 85% 30.07 in 3.0 mi West 3.5 mph - N/A   Partly Cloudy
2:53 AM 6.1 °F -0.9 °F 3.0 °F 87% 30.25 in 7.0 mi NW 3.5 mph - N/A   Partly Cloudy
3:53 AM 6.1 °F -4.3 °F 3.0 °F 87% 30.26 in 10.0 mi WNW 5.8 mph - N/A   Clear
4:53 AM 8.1 °F -4.3 °F 5.0 °F 87% 30.26 in 10.0 mi NW 8.1 mph - N/A   Clear
6:53 AM 7.0 °F -4.5 °F 3.0 °F 84% 30.30 in 10.0 mi NW 6.9 mph - N/A   Clear
7:53 AM 6.1 °F -4.3 °F 1.9 °F 83% 30.32 in 10.0 mi West 5.8 mph - N/A   Clear
8:53 AM 10.9 °F 0.2 °F 7.0 °F 84% 30.33 in 10.0 mi WNW 6.9 mph - N/A   Clear
9:53 AM 17.1 °F 10.0 °F 10.0 °F 74% 30.34 in 10.0 mi WNW 4.6 mph - N/A   Clear
10:53 AM 21.0 °F 16.2 °F 10.9 °F 65% 30.30 in 10.0 mi WNW 3.5 mph - N/A   Clear
11:53 AM 25.0 °F 20.7 °F 12.0 °F 58% 30.25 in 10.0 mi NW 3.5 mph - N/A   Clear
12:53 PM 30.0 °F 21.7 °F 14.0 °F 51% 30.21 in 10.0 mi West 9.2 mph - N/A   Clear
1:53 PM 30.0 °F 18.3 °F 14.0 °F 51% 30.18 in 10.0 mi WSW 17.3 mph - N/A   Clear
3:53 PM 28.9 °F 21.1 °F 14.0 °F 54% 30.18 in 10.0 mi West 8.1 mph - N/A   Clear
4:53 PM 24.1 °F 14.4 °F 12.9 °F 62% 30.20 in 10.0 mi WNW 9.2 mph - N/A   Clear
5:53 PM 21.9 °F 10.4 °F 10.9 °F 63% 30.24 in 10.0 mi West 11.5 mph - N/A   Clear
6:53 PM 21.0 °F 8.1 °F 9.0 °F 60% 30.23 in 10.0 mi WNW 13.8 mph - N/A   Clear
7:53 PM 21.9 °F 10.4 °F 10.9 °F 63% 30.24 in 10.0 mi WNW 11.5 mph - N/A   Overcast
8:53 PM 23.0 °F 12.4 °F 12.0 °F 63% 30.24 in 10.0 mi WNW 10.4 mph - N/A   Overcast
9:53 PM 25.0 °F 13.1 °F 17.1 °F 72% 30.23 in 10.0 mi WNW 13.8 mph - N/A   Overcast
10:50 PM 24.8 °F 12.9 °F 19.4 °F 80% 30.09 in 10.0 mi West 13.8 mph 19.6 mph N/A   Overcast
10:53 PM 25.0 °F 13.1 °F 19.0 °F 78% 30.23 in 10.0 mi West 13.8 mph 19.6 mph N/A   Overcast
11:26 PM 24.8 °F 12.9 °F 19.4 °F 80% 30.09 in 10.0 mi WNW 13.8 mph - N/A   Overcast
11:53 PM 26.1 °F 14.5 °F 19.9 °F 78% 30.20 in 10.0 mi WNW 13.8 mph - N/A   Overcast